Location: Mapua
(41.2500°S, 173.1000°E)
Time: 19:01:02
(UTC+13:00)

Envisat - Visible Passes

Search period start: 22 January 2019 00:00
Search period end: 01 February 2019 00:00
Orbit: 764 x 766 km, 98.2° (Epoch: 20 January)

Date Brightness Start Highest point End Pass type
(mag) Time Alt. Az. Time Alt. Az. Time Alt. Az.
22 Jan 6.1 22:44:20 10° SSW 22:46:47 14° WSW 22:49:14 10° W visible
23 Jan 5.3 22:06:10 10° S 22:10:29 28° WSW 22:14:46 10° WNW visible
24 Jan 3.8 21:28:54 10° S 21:33:58 59° WSW 21:38:59 10° NNW visible
25 Jan 5.9 22:32:32 10° SSW 22:35:44 17° WSW 22:38:55 10° W visible
26 Jan 4.9 21:54:45 10° S 21:59:23 34° WSW 22:03:57 10° NW visible
27 Jan 3.4 21:17:39 10° S 21:22:48 74° WSW 21:27:54 10° NNW visible
28 Jan 5.8 22:20:55 10° SSW 22:24:40 21° WSW 22:28:23 10° WNW visible
29 Jan 4.4 21:43:23 10° S 21:48:15 42° WSW 21:53:03 10° NW visible
30 Jan 6.2 22:47:49 10° SW 22:49:51 12° WSW 22:51:53 10° W visible
31 Jan 5.4 22:09:24 10° SSW 22:13:35 25° WSW 22:17:43 10° WNW visible
